SCP
-0 -0 -0 -0 0 0 0 0 0 0 0 0 0 0 0 0 0 0 0 0 0 0 0 0 0 0 0 0 0 0 0 0 0 0 0 0 0 0 0 0 0 0 0
0 -0 0 -0 -0 -0 0 0 0 0 0 0 0 0 0 0 0 0 0 0 0 0 0 0 0 0 0 0 0 0 0 0 0 0 0 0 0 0 0 0 0 0 0
-0 -0 0 0 -0 -0 -0 0 0 0 0 0 0 0 0 0 0 0 0 0 0 0 0 0 0 0 0 0 0 0 0 0 0 0 0 0 0 0 0 0 0 0 0
0 0 0 0 0 0 0 0 0 0 0 0 0 1 1 1 0 0 0 0 0 0 0 0 0 0 0 0 0 0 0 0 0 0 0 0 0 0 0 0 0 0 0
-0 0 0 0 0 0 0 0 0 0 0 0 0 1 1 0 0 0 0 0 0 0 0 0 0 0 0 0 0 0 0 0 0 0 0 0 0 0 0 0 0 0 0
0 0 0 0 1 0 1 0 0 0 0 0 0 0 0 0 0 0 0 0 0 0 0 0 0 0 0 0 0 0 0 0 0 0 0 0 0 0 0 0 0 0 0
0 0 0 0 0 1 1 1 0 0 0 0 0 0 0 0 0 0 0 0 0 0 0 0 0 0 0 0 0 0 0 0 0 0 0 0 0 0 0 0 0 0 0
1 0 0 0 0 1 1 1 0 1 1 1 1 1 0 0 1 0 1 0 0 0 0 0 0 0 0 0 0 0 0 0 0 0 0 0 0 0 0 0 0 0 0
0 0 1 0 0 1 1 1 1 1 1 1 1 0 0 0 1 1 0 0 0 0 0 0 0 0 0 0 0 0 0 0 0 0 0 0 0 0 0 0 0 0 0
0 1 1 0 1 1 0 0 0 0 1 1 1 1 0 0 0 0 0 0 0 0 0 0 0 0 0 0 0 0 0 0 0 0 0 0 0 0 0 0 0 0 0
0 1 1 0 0 0 0 0 0 0 0 0 0 0 0 1 0 0 0 0 0 0 0 0 0 0 0 0 0 0 0 0 0 0 0 0 0 0 0 0 0 0 0
0 0 0 0 0 0 0 0 0 0 0 0 0 0 0 0 0 0 0 0 0 0 0 0 0 0 0 0 0 0 0 0 0 0 0 0 0 0 0 0 0 0 0
0 0 0 0 0 0 0 0 0 0 0 0 0 0 0 0 0 0 0 0 0 0 0 0 0 0 -0 -0 0 0 0 0 0 0 0 0 0 0 0 0 0 0 0
0 0 0 0 0 0 0 0 0 0 0 0 0 0 0 0 0 0 0 0 0 0 0 -0 -0 0 -0 0 0 0 0 0 0 0 0 0 0 0 0 0 0 0 0
0 0 0 0 0 0 0 0 0 0 0 0 0 0 0 0 0 0 0 0 0 0 0 0 -0 0 0 0 0 0 0 0 0 0 0 0 0 0 0 0 0 0 0
0 0 0 0 0 0 0 0 0 0 0 0 0 0 0 0 0 0 0 0 0 0 0 0 0 0 0 0 0 0 0 0 0 0 0 0 0 0 0 0 0 0 0
0 0 0 0 0 0 0 0 0 0 0 0 0 0 0 0 0 0 0 0 0 0 0 0 0 0 0 0 0 0 0 0 0 0 0 0 0 0 0 0 0 0 0
0 0 0 0 0 0 0 0 0 0 0 0 0 0 0 0 0 0 0 0 0 0 0 0 0 0 0 0 0 0 0 0 0 0 0 0 0 0 0 0 0 0 0
0 0 0 0 0 0 0 0 0 0 0 0 0 0 0 0 0 0 0 0 0 0 0 0 0 0 0 0 0 0 0 0 0 0 0 0 0 0 0 0 0 0 0
0 0 0 0 0 0 0 0 0 0 0 0 0 0 0 0 0 0 0 0 0 0 0 0 0 0 0 0 0 0 0 0 -0 0 0 0 0 0 0 0 0 0 0
0 0 0 0 0 0 0 0 0 0 0 0 0 0 0 0 0 0 0 0 0 0 0 0 0 0 0 0 0 0 0 0 0 0 0 0 0 0 0 0 0 0 0
0 0 0 0 0 0 0 0 0 0 0 0 0 0 0 0 0 0 0 0 0 0 0 0 0 0 0 0 0 0 0 0 0 0 0 0 0 0 0 0 0 0 0
0 0 0 0 0 0 0 0 0 0 0 0 0 0 0 0 0 0 0 0 0 0 0 0 0 0 0 0 0 0 0 0 0 0 0 0 0 0 0 0 0 0 0
0 0 0 0 0 0 0 0 0 0 0 0 0 0 0 0 0 0 0 0 0 0 0 0 0 0 0 0 0 0 0 0 0 0 0 0 0 0 0 0 0 0 0
0 0 0 0 0 0 0 0 0 0 0 0 0 0 0 0 0 0 0 0 0 0 0 0 0 0 0 0 0 0 0 0 0 0 0 0 0 0 0 0 -0 0 0
0 0 0 0 0 0 0 0 0 0 0 0 0 0 0 0 0 0 0 0 0 0 0 0 0 0 0 0 0 0 0 0 0 0 0 0 0 0 0 0 0 0 0
Wind_Speed_500mb
75 68 67 62 60 54 48 44 44 38 40 42 48 54 49 37 28 20 16 14 21 23 25 28 33 33 30 29 25 21 24 21 27 30 31 26 27 35 43 44 37 32 25
76 70 76 69 65 59 56 50 46 46 46 42 42 44 40 36 29 25 25 22 25 29 30 29 32 31 31 27 24 22 24 24 24 29 33 35 38 42 44 52 53 47 42
83 73 79 75 68 64 61 62 49 46 43 43 35 42 36 35 38 34 29 26 24 19 24 29 28 30 26 26 29 31 30 31 32 32 33 17 24 35 39 46 52 59 58
85 75 74 78 69 61 64 63 55 44 38 34 33 37 39 36 35 32 33 31 28 22 25 23 21 19 16 19 21 26 34 37 39 40 43 45 53 49 32 32 37 41 54
83 84 77 77 66 56 58 62 54 42 32 31 27 28 36 33 29 28 27 31 32 33 31 31 30 26 24 16 16 22 27 34 40 41 47 46 48 52 56 59 57 61 64
81 79 79 78 67 59 58 53 52 34 31 30 32 32 29 25 25 26 26 33 39 39 37 36 37 37 36 24 24 27 31 35 42 43 47 51 52 56 52 59 72 67 68
81 74 84 78 71 62 52 41 38 46 41 36 31 29 28 29 24 28 27 33 28 40 42 41 41 38 38 38 34 36 43 46 48 50 49 48 52 57 63 65 74 83 86
75 78 83 81 73 65 50 45 46 42 40 37 32 26 28 28 32 33 41 55 53 48 49 41 36 36 39 42 42 45 48 50 51 51 54 54 54 56 62 68 72 78 82
76 76 80 79 73 63 51 46 45 38 36 30 26 27 28 30 36 34 40 47 41 51 53 49 35 42 41 40 44 46 43 41 44 46 48 52 54 55 58 62 63 63 67
65 69 72 70 70 58 53 45 40 32 29 21 18 19 20 22 27 38 25 26 29 39 34 30 30 28 26 30 35 41 44 43 39 39 41 41 42 43 43 45 47 49 56
59 59 59 64 54 59 53 48 35 19 21 14 7 6 14 25 25 25 32 30 32 20 21 18 18 28 30 33 36 37 37 38 41 39 35 30 31 33 35 37 38 39 39
50 47 51 54 54 55 55 52 25 21 15 18 16 22 23 14 19 19 11 5 6 13 12 21 21 23 27 28 30 29 29 29 30 32 35 41 42 42 39 38 39 40 35
58 58 49 45 53 56 53 44 30 24 15 10 21 20 12 7 9 4 1 3 7 10 17 20 25 31 37 35 25 25 25 28 31 34 35 37 40 44 42 39 39 38 36
44 42 38 35 36 35 31 27 21 19 19 18 15 14 12 1 3 2 4 6 12 16 22 32 39 43 37 24 27 28 29 32 41 42 38 38 40 42 40 43 42 40 38
45 39 37 41 39 35 34 30 18 17 14 10 7 8 6 5 8 2 8 12 13 24 30 36 41 35 24 30 37 37 37 45 47 42 42 41 42 44 43 46 42 38 40
50 52 44 38 33 33 29 23 22 16 10 1 4 12 15 11 9 14 13 11 19 28 35 28 34 33 34 36 41 43 44 48 47 43 41 46 47 46 43 46 42 44 43
56 49 42 35 34 32 26 23 15 10 7 12 17 18 11 14 13 7 11 19 28 34 25 31 32 26 32 37 37 36 39 41 49 51 50 57 55 45 52 47 53 49 39
41 44 41 31 32 33 25 22 18 16 11 15 12 11 10 7 11 15 17 26 23 23 29 31 36 36 43 46 44 39 35 45 45 50 59 65 60 51 53 52 60 54 45
33 37 29 36 34 31 29 20 15 9 14 15 14 16 14 12 13 9 19 19 19 25 31 36 42 42 49 48 45 46 53 48 49 50 43 45 54 54 55 58 60 62 62
43 44 43 48 50 36 29 23 11 6 1 7 10 7 7 10 15 17 20 25 31 26 31 35 40 43 48 57 55 55 56 50 44 42 49 57 59 63 67 70 68 72 72
44 46 46 57 36 28 24 10 5 6 6 8 13 11 11 13 17 25 29 32 32 33 29 36 41 46 49 48 37 36 41 38 43 49 51 47 49 51 53 51 53 58 53
39 8 36 31 27 24 10 6 5 4 4 9 9 12 19 24 30 33 31 31 29 27 34 45 40 30 28 30 26 29 32 39 42 30 27 41 61 49 45 41 42 39 39
31 39 35 27 21 14 10 10 7 7 11 15 21 26 27 28 29 30 30 24 31 40 41 34 33 32 31 28 20 27 34 26 13 24 25 38 46 54 55 39 28 29 32
43 34 33 28 24 20 16 11 12 13 12 15 19 20 22 21 22 25 30 35 37 34 30 34 34 32 27 23 24 29 23 10 17 18 23 32 38 43 58 53 42 28 30
38 33 30 27 26 20 13 8 11 11 11 12 13 14 18 24 31 36 36 31 28 28 32 32 23 22 25 27 25 15 13 21 23 22 29 34 37 40 43 47 50 38 40
38 34 29 25 21 20 13 5 7 8 10 9 9 17 23 34 39 36 27 24 27 31 30 22 20 18 16 18 21 19 22 27 27 25 30 34 39 42 42 36 35 31 35
Wind_Direction_500mb
210 209 211 214 215 221 226 227 223 222 223 225 231 240 246 247 241 244 247 270 251 252 279 273 278 283 282 283 273 250 248 251 265 262 262 268 270 270 266 265 261 257 263
216 214 208 212 220 224 217 217 228 230 230 234 239 240 245 243 240 240 250 261 265 265 280 277 284 284 280 274 264 258 262 266 266 271 271 277 277 265 263 262 262 260 256
212 213 212 214 218 223 223 226 232 234 237 239 237 235 235 242 240 238 253 265 274 271 280 281 283 287 280 274 262 268 273 272 268 269 264 269 264 274 267 262 262 261 258
216 214 215 216 218 224 228 233 234 236 239 246 244 239 243 255 258 256 266 263 267 270 280 277 282 288 276 271 267 272 273 274 279 269 262 266 265 272 284 276 265 262 258
218 213 216 217 222 223 227 229 233 240 244 243 251 258 253 258 253 259 266 264 268 270 272 269 271 284 286 279 279 284 288 285 285 278 273 271 274 269 262 277 273 273 271
219 217 215 213 219 217 222 222 222 231 234 238 242 245 252 263 258 266 278 293 283 276 278 275 277 283 288 283 289 289 289 291 289 286 280 274 270 273 269 271 277 278 274
214 213 212 209 209 208 202 207 218 226 227 230 238 252 259 253 247 237 257 290 286 284 280 275 280 287 289 292 292 293 288 290 292 293 292 291 290 287 285 278 275 275 272
211 210 210 203 204 210 207 210 224 228 227 232 236 237 244 244 235 239 234 255 273 281 282 278 286 298 294 282 283 287 291 296 297 292 295 294 289 288 288 287 287 282 276
205 212 210 207 206 210 213 215 223 226 227 228 231 232 237 254 244 248 256 268 243 267 275 278 283 305 297 299 300 302 303 300 299 297 293 292 292 293 292 291 292 290 275
197 208 210 206 210 207 204 210 218 223 222 216 216 228 244 253 260 257 260 248 267 271 280 293 296 304 312 314 312 309 304 301 300 302 302 302 300 298 299 298 297 295 297
187 194 196 199 200 198 199 210 203 209 249 210 222 243 294 273 263 262 259 260 263 260 274 290 300 311 313 308 307 304 299 296 300 301 303 308 308 308 310 308 306 304 304
178 180 186 192 195 198 201 197 223 265 267 242 242 292 322 268 268 292 289 176 213 257 290 317 321 323 322 319 316 309 302 305 303 303 304 307 308 309 306 302 302 306 301
158 173 185 196 200 197 202 203 244 265 264 215 264 301 325 278 301 319 89 216 243 301 319 325 336 344 345 341 331 333 329 324 322 319 316 314 309 309 308 302 300 299 298
149 159 172 190 199 197 209 218 223 227 207 288 275 273 285 297 132 206 250 263 281 307 338 349 348 344 340 339 335 334 332 331 325 325 315 310 309 311 305 301 297 295 296
133 142 159 180 180 174 179 189 178 179 219 232 219 222 204 283 308 289 270 273 318 337 339 341 349 343 341 331 331 327 319 319 311 312 311 314 305 306 306 310 301 300 298
148 147 157 154 150 149 146 148 150 155 161 110 269 285 291 299 274 263 282 324 335 340 337 336 358 355 339 332 323 320 316 322 321 309 301 305 304 303 297 301 295 300 301
159 147 144 144 151 151 154 149 159 191 224 265 269 269 267 257 245 275 316 327 328 325 325 321 325 320 316 307 316 308 309 310 319 309 307 308 305 295 300 298 298 297 296
149 143 147 149 175 163 165 182 185 196 228 248 241 200 189 259 284 295 307 323 323 321 308 299 300 297 311 311 311 293 298 306 310 311 301 303 307 300 294 295 293 291 290
145 153 144 184 191 168 172 182 178 170 185 199 256 251 245 274 279 282 323 320 316 312 300 292 292 302 316 318 315 296 304 301 310 312 307 303 306 298 292 289 286 283 281
182 172 158 180 203 175 172 164 150 152 7 314 293 286 311 327 306 301 307 303 307 311 311 309 305 316 311 304 299 299 303 313 317 308 307 305 301 294 286 283 281 278 278
162 164 183 193 179 161 166 155 135 196 256 272 299 291 313 299 295 285 288 296 306 308 310 305 306 310 306 309 313 306 314 320 319 319 323 334 331 305 292 288 286 287 291
170 215 224 202 199 156 175 143 168 249 248 296 296 279 278 281 285 289 294 302 306 307 308 306 305 309 317 318 323 326 323 322 325 349 12 7 9 0 344 312 295 296 293
240 212 213 209 166 171 180 192 191 216 244 265 271 274 281 288 293 291 299 302 307 306 303 302 309 311 318 314 319 332 326 329 8 359 359 6 14 13 11 2 345 314 297
212 213 212 184 179 178 189 199 217 232 256 277 285 287 295 293 297 302 303 305 307 304 307 310 309 304 309 304 312 331 324 324 339 339 350 357 2 14 18 17 15 360 5
196 195 192 186 182 188 193 228 241 275 299 308 304 294 303 314 312 313 309 304 311 321 319 315 314 312 309 313 323 355 28 349 338 339 343 349 360 8 12 16 28 28 24
182 183 187 195 208 196 197 253 299 315 318 312 308 321 321 327 324 317 302 312 320 324 328 331 333 345 12 53 64 39 23 14 2 349 349 357 357 357 354 351 357 357 356
Wind_Speed_850mb
75 68 67 62 60 54 48 44 44 38 40 42 48 54 49 37 28 20 16 14 21 23 25 28 33 33 30 29 25 21 24 21 27 30 31 26 27 35 43 44 37 32 25
76 70 76 69 65 59 56 50 46 46 46 42 42 44 40 36 29 25 25 22 25 29 30 29 32 31 31 27 24 22 24 24 24 29 33 35 38 42 44 52 53 47 42
83 73 79 75 68 64 61 62 49 46 43 43 35 42 36 35 38 34 29 26 24 19 24 29 28 30 26 26 29 31 30 31 32 32 33 17 24 35 39 46 52 59 58
85 75 74 78 69 61 64 63 55 44 38 34 33 37 39 36 35 32 33 31 28 22 25 23 21 19 16 19 21 26 34 37 39 40 43 45 53 49 32 32 37 41 54
83 84 77 77 66 56 58 62 54 42 32 31 27 28 36 33 29 28 27 31 32 33 31 31 30 26 24 16 16 22 27 34 40 41 47 46 48 52 56 59 57 61 64
81 79 79 78 67 59 58 53 52 34 31 30 32 32 29 25 25 26 26 33 39 39 37 36 37 37 36 24 24 27 31 35 42 43 47 51 52 56 52 59 72 67 68
81 74 84 78 71 62 52 41 38 46 41 36 31 29 28 29 24 28 27 33 28 40 42 41 41 38 38 38 34 36 43 46 48 50 49 48 52 57 63 65 74 83 86
75 78 83 81 73 65 50 45 46 42 40 37 32 26 28 28 32 33 41 55 53 48 49 41 36 36 39 42 42 45 48 50 51 51 54 54 54 56 62 68 72 78 82
76 76 80 79 73 63 51 46 45 38 36 30 26 27 28 30 36 34 40 47 41 51 53 49 35 42 41 40 44 46 43 41 44 46 48 52 54 55 58 62 63 63 67
65 69 72 70 70 58 53 45 40 32 29 21 18 19 20 22 27 38 25 26 29 39 34 30 30 28 26 30 35 41 44 43 39 39 41 41 42 43 43 45 47 49 56
59 59 59 64 54 59 53 48 35 19 21 14 7 6 14 25 25 25 32 30 32 20 21 18 18 28 30 33 36 37 37 38 41 39 35 30 31 33 35 37 38 39 39
50 47 51 54 54 55 55 52 25 21 15 18 16 22 23 14 19 19 11 5 6 13 12 21 21 23 27 28 30 29 29 29 30 32 35 41 42 42 39 38 39 40 35
58 58 49 45 53 56 53 44 30 24 15 10 21 20 12 7 9 4 1 3 7 10 17 20 25 31 37 35 25 25 25 28 31 34 35 37 40 44 42 39 39 38 36
44 42 38 35 36 35 31 27 21 19 19 18 15 14 12 1 3 2 4 6 12 16 22 32 39 43 37 24 27 28 29 32 41 42 38 38 40 42 40 43 42 40 38
45 39 37 41 39 35 34 30 18 17 14 10 7 8 6 5 8 2 8 12 13 24 30 36 41 35 24 30 37 37 37 45 47 42 42 41 42 44 43 46 42 38 40
50 52 44 38 33 33 29 23 22 16 10 1 4 12 15 11 9 14 13 11 19 28 35 28 34 33 34 36 41 43 44 48 47 43 41 46 47 46 43 46 42 44 43
56 49 42 35 34 32 26 23 15 10 7 12 17 18 11 14 13 7 11 19 28 34 25 31 32 26 32 37 37 36 39 41 49 51 50 57 55 45 52 47 53 49 39
41 44 41 31 32 33 25 22 18 16 11 15 12 11 10 7 11 15 17 26 23 23 29 31 36 36 43 46 44 39 35 45 45 50 59 65 60 51 53 52 60 54 45
33 37 29 36 34 31 29 20 15 9 14 15 14 16 14 12 13 9 19 19 19 25 31 36 42 42 49 48 45 46 53 48 49 50 43 45 54 54 55 58 60 62 62
43 44 43 48 50 36 29 23 11 6 1 7 10 7 7 10 15 17 20 25 31 26 31 35 40 43 48 57 55 55 56 50 44 42 49 57 59 63 67 70 68 72 72
44 46 46 57 36 28 24 10 5 6 6 8 13 11 11 13 17 25 29 32 32 33 29 36 41 46 49 48 37 36 41 38 43 49 51 47 49 51 53 51 53 58 53
39 8 36 31 27 24 10 6 5 4 4 9 9 12 19 24 30 33 31 31 29 27 34 45 40 30 28 30 26 29 32 39 42 30 27 41 61 49 45 41 42 39 39
31 39 35 27 21 14 10 10 7 7 11 15 21 26 27 28 29 30 30 24 31 40 41 34 33 32 31 28 20 27 34 26 13 24 25 38 46 54 55 39 28 29 32
43 34 33 28 24 20 16 11 12 13 12 15 19 20 22 21 22 25 30 35 37 34 30 34 34 32 27 23 24 29 23 10 17 18 23 32 38 43 58 53 42 28 30
38 33 30 27 26 20 13 8 11 11 11 12 13 14 18 24 31 36 36 31 28 28 32 32 23 22 25 27 25 15 13 21 23 22 29 34 37 40 43 47 50 38 40
38 34 29 25 21 20 13 5 7 8 10 9 9 17 23 34 39 36 27 24 27 31 30 22 20 18 16 18 21 19 22 27 27 25 30 34 39 42 42 36 35 31 35
Wind_Direction_850mb
210 209 211 214 215 221 226 227 223 222 223 225 231 240 246 247 241 244 247 270 251 252 279 273 278 283 282 283 273 250 248 251 265 262 262 268 270 270 266 265 261 257 263
216 214 208 212 220 224 217 217 228 230 230 234 239 240 245 243 240 240 250 261 265 265 280 277 284 284 280 274 264 258 262 266 266 271 271 277 277 265 263 262 262 260 256
212 213 212 214 218 223 223 226 232 234 237 239 237 235 235 242 240 238 253 265 274 271 280 281 283 287 280 274 262 268 273 272 268 269 264 269 264 274 267 262 262 261 258
216 214 215 216 218 224 228 233 234 236 239 246 244 239 243 255 258 256 266 263 267 270 280 277 282 288 276 271 267 272 273 274 279 269 262 266 265 272 284 276 265 262 258
218 213 216 217 222 223 227 229 233 240 244 243 251 258 253 258 253 259 266 264 268 270 272 269 271 284 286 279 279 284 288 285 285 278 273 271 274 269 262 277 273 273 271
219 217 215 213 219 217 222 222 222 231 234 238 242 245 252 263 258 266 278 293 283 276 278 275 277 283 288 283 289 289 289 291 289 286 280 274 270 273 269 271 277 278 274
214 213 212 209 209 208 202 207 218 226 227 230 238 252 259 253 247 237 257 290 286 284 280 275 280 287 289 292 292 293 288 290 292 293 292 291 290 287 285 278 275 275 272
211 210 210 203 204 210 207 210 224 228 227 232 236 237 244 244 235 239 234 255 273 281 282 278 286 298 294 282 283 287 291 296 297 292 295 294 289 288 288 287 287 282 276
205 212 210 207 206 210 213 215 223 226 227 228 231 232 237 254 244 248 256 268 243 267 275 278 283 305 297 299 300 302 303 300 299 297 293 292 292 293 292 291 292 290 275
197 208 210 206 210 207 204 210 218 223 222 216 216 228 244 253 260 257 260 248 267 271 280 293 296 304 312 314 312 309 304 301 300 302 302 302 300 298 299 298 297 295 297
187 194 196 199 200 198 199 210 203 209 249 210 222 243 294 273 263 262 259 260 263 260 274 290 300 311 313 308 307 304 299 296 300 301 303 308 308 308 310 308 306 304 304
178 180 186 192 195 198 201 197 223 265 267 242 242 292 322 268 268 292 289 176 213 257 290 317 321 323 322 319 316 309 302 305 303 303 304 307 308 309 306 302 302 306 301
158 173 185 196 200 197 202 203 244 265 264 215 264 301 325 278 301 319 89 216 243 301 319 325 336 344 345 341 331 333 329 324 322 319 316 314 309 309 308 302 300 299 298
149 159 172 190 199 197 209 218 223 227 207 288 275 273 285 297 132 206 250 263 281 307 338 349 348 344 340 339 335 334 332 331 325 325 315 310 309 311 305 301 297 295 296
133 142 159 180 180 174 179 189 178 179 219 232 219 222 204 283 308 289 270 273 318 337 339 341 349 343 341 331 331 327 319 319 311 312 311 314 305 306 306 310 301 300 298
148 147 157 154 150 149 146 148 150 155 161 110 269 285 291 299 274 263 282 324 335 340 337 336 358 355 339 332 323 320 316 322 321 309 301 305 304 303 297 301 295 300 301
159 147 144 144 151 151 154 149 159 191 224 265 269 269 267 257 245 275 316 327 328 325 325 321 325 320 316 307 316 308 309 310 319 309 307 308 305 295 300 298 298 297 296
149 143 147 149 175 163 165 182 185 196 228 248 241 200 189 259 284 295 307 323 323 321 308 299 300 297 311 311 311 293 298 306 310 311 301 303 307 300 294 295 293 291 290
145 153 144 184 191 168 172 182 178 170 185 199 256 251 245 274 279 282 323 320 316 312 300 292 292 302 316 318 315 296 304 301 310 312 307 303 306 298 292 289 286 283 281
182 172 158 180 203 175 172 164 150 152 7 314 293 286 311 327 306 301 307 303 307 311 311 309 305 316 311 304 299 299 303 313 317 308 307 305 301 294 286 283 281 278 278
162 164 183 193 179 161 166 155 135 196 256 272 299 291 313 299 295 285 288 296 306 308 310 305 306 310 306 309 313 306 314 320 319 319 323 334 331 305 292 288 286 287 291
170 215 224 202 199 156 175 143 168 249 248 296 296 279 278 281 285 289 294 302 306 307 308 306 305 309 317 318 323 326 323 322 325 349 12 7 9 0 344 312 295 296 293
240 212 213 209 166 171 180 192 191 216 244 265 271 274 281 288 293 291 299 302 307 306 303 302 309 311 318 314 319 332 326 329 8 359 359 6 14 13 11 2 345 314 297
212 213 212 184 179 178 189 199 217 232 256 277 285 287 295 293 297 302 303 305 307 304 307 310 309 304 309 304 312 331 324 324 339 339 350 357 2 14 18 17 15 360 5
196 195 192 186 182 188 193 228 241 275 299 308 304 294 303 314 312 313 309 304 311 321 319 315 314 312 309 313 323 355 28 349 338 339 343 349 360 8 12 16 28 28 24
182 183 187 195 208 196 197 253 299 315 318 312 308 321 321 327 324 317 302 312 320 324 328 331 333 345 12 53 64 39 23 14 2 349 349 357 357 357 354 351 357 357 356